Location: Banska Bystrica
(48.7333°N, 19.1500°E)
Time: 02:44:04
(UTC+01:00)

Daily predictions for brighter satellites

Satellite Brightness Start Highest point End
(mag) Time Altitude Azimuth Time Altitude Azimuth Time Altitude Azimuth
USA 234 4.5 03:04:38 10° E 03:08:25 36° E 03:08:25 36° E
Cosmos 2360 Rocket 4.5 03:34:40 16° NNE 03:35:24 16° NE 03:38:52 10° ENE
SeaSat 1 4.5 03:33:49 10° NE 03:37:24 25° E 03:37:24 25° E
Cosmos 1980 Rocket 4.0 03:41:50 25° SE 03:41:50 25° SE 03:44:05 10° SE
Meteor 2-4 Rocket 4.3 04:08:22 51° ESE 04:08:22 51° ESE 04:12:47 10° SSE
ATLAS 5 CENTAUR R/B 4.1 04:09:57 19° NNE 04:09:57 19° NNE 04:13:57 10° NE
USA 267 3.2 04:10:23 10° ENE 04:16:56 79° SE 04:17:37 71° SSW
SL-16 R/B 2.9 04:17:16 44° NNE 04:18:17 49° NE 04:23:45 10° SE
Meteor 1-11 Rocket 4.1 04:17:32 10° S 04:23:23 65° E 04:29:10 10° NNE
Cosmos 2322 Rocket 2.8 04:22:49 44° NNE 04:24:01 52° NE 04:29:34 10° SE
Cosmos 2344 4.5 04:24:33 43° NW 04:29:04 74° SW 04:43:12 10° SSE
BREEZE-M DEB (TANK) 4.4 04:31:22 34° SSE 04:31:22 34° SSE 04:34:31 10° ESE
SKYMED 2 3.7 04:42:26 10° SSE 04:46:16 68° SE 04:46:16 68° SE
Meteor 1-5 Rocket 4.4 04:42:56 10° S 04:48:19 67° E 04:53:37 10° NNE
Timation 2 Rocket 4.4 04:42:58 10° SSW 04:49:48 72° ESE 04:56:39 10° NNE
Cosmos 2082 Rocket 2.9 04:51:13 39° NNW 04:51:13 39° NNW 04:55:21 10° NNE
USA 234 3.3 04:47:34 10° SE 04:54:04 64° SW 04:55:47 48° W
Cosmos 1833 Rocket 3.5 04:55:57 35° NNW 04:55:57 35° NNW 04:59:52 10° NNE
Cosmos 44 4.5 04:58:14 26° N 04:58:14 26° N 05:00:36 10° NNE
Cosmos 1092 Rocket 4.2 04:55:42 10° S 05:01:46 70° E 05:07:54 10° NNE
EO 1 Del DPAF 3.7 05:05:13 10° S 05:08:04 47° SSW 05:08:04 47° SSW
PAYLOAD A 4.3 05:04:13 10° NNE 05:09:41 75° ESE 05:15:03 10° S
CZ-4B R/B 3.7 05:05:11 10° N 05:09:34 39° NW 05:09:34 39° NW
Okean 1-7 Rocket 4.1 05:06:49 15° N 05:10:32 61° ENE 05:15:02 10° SSE
IRS-1C Rocket 4.4 05:06:39 10° N 05:11:08 44° NW 05:11:08 44° NW
Cosmos 2333 Rocket 4.3 05:09:07 10° N 05:13:25 21° NE 05:17:41 10° E
SeaSat 1 2.4 05:10:50 10° NNE 05:15:42 57° NW 05:17:13 40° WSW
Cosmos 1300 Rocket 3.4 05:11:42 10° SSW 05:15:58 66° W 05:20:19 10° N
CZ-4C R/B 2.2 05:12:11 14° SW 05:16:44 81° SE 05:22:55 10° NE
Meteor 1-23 Rocket 4.2 05:14:16 30° NNW 05:16:52 57° W 05:22:16 10° S
COSMOS 2428 4.2 05:12:10 12° NNW 05:16:53 31° NE 05:21:56 10° ESE
Meteor 1-4 Rocket 2.9 05:14:10 10° S 05:17:56 69° E 05:21:44 10° NNE
Cosmos 1025 Rocket 2.8 05:17:10 30° NNW 05:19:13 85° W 05:23:30 10° S
ERBS 4.2 05:20:52 20° NNE 05:20:52 20° NNE 05:23:11 10° NE
Cosmos 2360 Rocket 2.6 05:16:27 18° NNW 05:20:39 61° ENE 05:26:16 10° SE
Cosmos 1066 Rocket 4.5 05:15:29 10° N 05:20:49 65° ENE 05:26:11 10° SSE
Cosmos 1980 Rocket 3.6 05:23:40 21° SW 05:23:40 21° SW 05:26:24 10° SSW
Meteor 2-11 Rocket 4.3 05:19:01 10° N 05:25:10 86° W 05:31:15 10° S
NOAA 6 3.9 05:20:49 10° N 05:25:55 67° WNW 05:31:01 10° SSW
deb Kosmos-1763 4.1 05:24:42 10° SSW 05:28:26 81° ESE 05:32:12 10° NNE
Cosmos 1500 3.2 05:25:36 10° S 05:29:27 84° E 05:33:19 10° N
Cosmos 2219 Rocket 3.9 05:25:08 10° NNW 05:29:56 27° NE 05:34:42 10° ESE
CZ-2C R/B 2.4 05:25:42 10° NNE 05:30:37 81° ESE 05:35:21 10° SSW
COSMO-SKYMED 1 3.2 05:31:00 10° SSW 05:34:52 34° W 05:34:52 34° W
CZ-4 R/B 3.8 05:33:49 10° NE 05:37:22 26° E 05:40:56 10° SSE
Okean-O 2.7 05:33:31 10° N 05:37:50 51° WNW 05:42:07 10° SW
Cosmos 1184 Rocket 2.8 05:44:44 37° NW 05:45:45 55° W 05:49:00 10° S
Cosmos 2237 Rocket 4.2 05:41:25 10° N 05:45:46 22° NE 05:50:04 10° E
Cosmos 773 Rocket 4.0 05:43:18 10° SW 05:48:20 55° WNW 05:53:28 10° NNE
Cosmos 1624 Rocket 4.5 05:44:48 10° NNW 05:50:07 62° ENE 05:55:24 10° SE
IDEFIX/ARIANE 42P 2.6 05:46:05 10° N 05:51:09 54° WNW 05:56:13 10° SW
Okean 1 Rocket 3.3 05:47:07 10° SSW 05:51:20 46° WNW 05:55:37 10° N
BREEZE-M DEB (TANK) 3.6 05:49:51 14° SW 05:51:44 41° SSE 05:56:12 10° ENE
MSX 3.8 05:47:50 10° NNE 05:53:38 82° WNW 05:59:22 10° SSW
SJ-12 3.8 05:51:30 10° N 05:55:35 77° WNW 05:59:38 10° SSW
ATLAS 5 CENTAUR R/B 3.4 05:51:30 14° NNW 05:56:05 38° NE 06:01:54 10° ESE
Okean 2 4.0 05:55:12 24° NW 05:56:50 33° W 06:00:30 10° SSW
Celestis-02/Orion 38 4.5 05:53:05 10° SSE 05:58:09 87° WSW 06:03:05 11° NNW
Cosmos 1680 Rocket 3.6 05:52:58 10° SSW 05:58:10 83° ESE 06:03:26 10° NNE
USA 267 3.5 05:53:30 10° ENE 05:59:47 53° NNW 06:04:58 16° W
Meteor 1-12 Rocket 4.4 05:55:04 10° S 06:00:44 76° E 06:06:24 10° NNE
Cosmos 1666 3.3 05:57:59 10° S 06:01:45 59° E 06:05:31 10° NNE
SL-16 R/B 3.0 05:59:11 20° WNW 06:02:11 32° WSW 06:07:07 10° SSW
Cosmos 1975 2.7 06:01:15 10° SSW 06:05:13 70° WNW 06:09:13 10° N
COSMOS 2441 4.3 06:01:03 10° N 06:05:52 64° WNW 06:10:37 10° SSW
Cosmos 1892 Rocket 3.5 06:03:21 10° NNW 06:07:44 66° W 06:12:03 10° S
Cosmos 2322 Rocket 3.1 06:04:41 18° WNW 06:07:49 30° WSW 06:12:39 10° SSW
YAOGAN 1 4.2 06:03:56 10° NNE 06:07:58 37° E 06:11:59 10° SSE
Cosmos 389 Rocket 2.6 06:06:30 10° S 06:10:06 79° E 06:13:43 10° NNE
Cosmos 1371 Rocket 3.9 06:06:46 10° NNW 06:12:01 78° WSW 06:17:12 10° SSE
CSL-04 Rocket 3.9 06:07:52 10° NNE 06:13:29 79° ESE 06:19:01 10° SSW
Cosmos 2285 Rocket 3.9 06:07:24 10° SSW 06:13:43 78° WNW 06:20:04 10° NNE
BREEZE-M DEB (TANK) 2.7 06:12:16 14° WNW 06:18:07 61° SSW 06:20:35 10° SE
Cosmos 2237 4.2 06:12:43 10° NNW 06:18:26 77° WSW 06:24:07 10° SSE
Thor Agena Rocket 3.9 06:14:21 10° S 06:19:10 44° W 06:24:03 10° NNW
Cosmos 1238 Rocket 4.3 06:17:07 10° N 06:23:51 75° E 06:29:53 10° SSE
ATLAS CENTAUR R/B 3.1 06:20:32 10° S 06:23:52 32° ESE 06:27:11 10° NE
SMAP 3.0 06:19:24 10° NNE 06:24:05 86° WNW 06:28:45 10° SSW
Cosmos 923 Rocket 4.3 06:24:51 10° SW 06:29:52 45° WNW 06:34:54 10° NNE
S3M 4.1 06:25:08 10° NNW 06:31:12 60° W 06:37:19 10° S
Cosmos 2322 3.9 06:25:51 10° NW 06:31:24 55° WSW 06:36:53 10° S
Cosmos 2082 Rocket 3.9 06:33:06 11° NW 06:35:30 13° NNW 06:38:13 10° N
Cosmos 1602 Rocket 3.6 06:31:31 10° N 06:35:53 81° E 06:40:11 10° SSE
ALOS 3.7 06:32:55 10° NNE 06:37:23 43° E 06:41:50 10° S
Cosmos 1833 4.1 06:34:30 10° SW 06:40:04 71° WNW 06:45:42 10° NNE
Cosmos 1833 Rocket 4.5 06:37:52 10° NW 06:40:06 12° NNW 06:42:22 10° N
SL-16 R/B 4.0 06:36:31 10° N 06:41:05 24° NE 06:45:38 10° E
Cosmos 1484 Rocket 3.2 06:37:54 10° N 06:41:36 40° WNW 06:45:12 10° SW
Cosmos 1842 3.3 06:39:06 10° NNW 06:43:03 66° W 06:46:58 10° S
APEX 3.7 06:40:45 10° SW 06:44:14 43° NW 06:48:40 10° NNE
SWAS 4.4 06:41:03 10° SW 06:45:22 72° WNW 06:49:43 10° NNE
Cosmos 1743 3.2 06:42:31 10° SW 06:46:03 36° WNW 06:49:38 10° N
Cosmos 2112 Rocket 4.2 06:41:13 10° SW 06:46:14 49° WNW 06:51:19 10° NNE
Aureole 2 Rocket 2.4 06:43:14 10° NNW 06:46:38 58° WSW 06:49:43 10° S
Cosmos 1455 Rocket 3.3 06:43:41 10° SSW 06:48:01 50° WNW 06:52:23 10° N
Cosmos 2056 Rocket 3.8 06:44:27 10° NNW 06:49:22 48° WSW 06:54:17 10° S
Meteor 1-21 4.4 06:44:21 10° NNW 06:49:48 54° W 06:55:14 10° S
CORIOLIS 4.1 06:46:36 10° N 06:51:56 68° WNW 06:57:13 10° SSW
Cosmos 1544 Rocket 4.0 06:48:03 10° SSW 06:52:17 42° WNW 06:56:32 10° N
SeaSat 1 4.1 06:49:41 10° N 06:52:21 15° NW 06:55:02 10° WNW
SPOT 3 Rocket 4.4 06:52:19 10° NNE 06:57:24 56° ESE 07:02:27 10° S
